[[{"header":{"parameterUnit":"m.s-1","parameterCategory":2,"la1":30.2992,"la2":30.254,"lo1":-89.0895,"lo2":-89.0443,"dy":0.0025,"dx":0.0025,"nx":19,"ny":19,"refTime":"2026-04-01T21:00:00:Z","depth":"0","parameterNumber":2,"parameterNumberName":"U-component_of_CURRENTS"},"data":[0,0,0,-0.182,-0.1819,-0.1758,-0.1758,-0.1678,-0.1678,0,0,0,0,0,0,0,0,0,0,0,-0.1842,-0.1841,-0.182,-0.1819,-0.1758,-0.1758,-0.1679,-0.1678,0,0,0,0,0,0,0,0,0,0,0,-0.1842,-0.1841,-0.1841,-0.1819,-0.1758,-0.1758,-0.1679,-0.1722,0,0,0,0,0,0,0,0,0,0,-0.178,-0.181,-0.1841,-0.1841,-0.1818,-0.1758,-0.1758,-0.1724,-0.1719,-0.1709,0,-0.1708,0,-0.1696,-0.1674,-0.1673,0,0,0,-0.1807,-0.1814,-0.1794,-0.1841,-0.1818,-0.1758,-0.1782,-0.1721,-0.1716,-0.1703,-0.1707,-0.1704,-0.1695,-0.1673,-0.1673,-0.1702,-0.1703,0,0,-0.181,-0.183,-0.1798,-0.1792,-0.1812,-0.1784,-0.178,-0.1718,-0.1719,-0.1706,-0.1702,-0.1693,-0.1673,-0.1672,-0.1701,-0.1702,0,0,0,-0.1828,-0.1832,-0.1814,-0.1795,-0.1787,-0.1783,-0.1778,-0.1721,-0.1715,-0.1701,-0.1692,-0.1672,-0.1672,-0.17,-0.1702,-0.1792,0,0,0,-0.1829,-0.1843,-0.1816,-0.1827,-0.1788,-0.1755,-0.1783,-0.1719,-0.1712,-0.1693,-0.1672,-0.1671,-0.1699,-0.1701,-0.1787,-0.18,0,0,0,-0.1842,-0.1845,-0.184,-0.1828,-0.1807,-0.1756,-0.1745,-0.1717,-0.1707,-0.1673,-0.1671,-0.1699,-0.1701,-0.1783,-0.1794,-0.1864,0,0,0,-0.186,-0.188,-0.1841,-0.1865,-0.1808,-0.1813,-0.1745,-0.1732,-0.1711,-0.1672,-0.17,-0.1701,-0.1782,-0.1791,-0.186,-0.1847,-0.1864,0,0,-0.19,-0.1885,-0.1902,-0.1865,-0.1892,-0.182,-0.1856,-0.1789,-0.1737,-0.1715,-0.1716,-0.1789,-0.1794,-0.1863,-0.1956,-0.197,0,0,0,-0.1924,-0.1935,-0.1936,-0.194,-0.1925,-0.1915,-0.1864,-0.1846,-0.1821,-0.1734,-0.1802,-0.1802,-0.1843,-0.1827,-0.1839,-0.1747,-0.171,-0.171,-0.171,-0.1977,-0.1979,-0.2004,-0.2006,-0.2012,-0.1985,-0.1981,-0.1947,-0.1895,-0.1909,-0.1887,-0.2011,-0.1996,-0.2005,-0.1911,-0.1913,-0.1913,-0.1914,-0.1914,-0.2013,-0.1985,-0.2036,-0.2056,-0.2058,-0.2075,-0.2076,-0.2051,-0.2065,-0.1995,-0.2032,-0.1936,-0.2023,-0.1918,-0.192,-0.1919,-0.1918,-0.1917,-0.1917,-0.1977,-0.1952,-0.2007,-0.2034,-0.2064,-0.2077,-0.2101,-0.2098,-0.2127,-0.2155,-0.2132,-0.2129,-0.2026,-0.2179,-0.218,-0.218,-0.218,-0.2181,-0.2181,-0.1853,-0.1912,-0.1919,-0.1979,-0.1975,-0.2005,-0.2083,-0.2146,-0.2217,-0.2213,-0.2214,-0.2059,-0.2091,-0.2068,-0.2187,-0.2186,-0.2185,-0.2184,-0.2184,-0.1671,-0.1751,-0.1748,-0.1762,-0.1809,-0.182,-0.1966,-0.2152,-0.2256,-0.2313,-0.2178,-0.2256,-0.2221,-0.221,-0.2189,-0.2333,-0.2333,-0.2333,-0.2333,-0.1528,-0.1578,-0.1572,-0.1585,-0.1625,-0.1718,-0.1796,-0.1962,-0.2121,-0.2122,-0.2189,-0.2113,-0.2111,-0.2064,-0.2056,-0.203,-0.213,-0.213,-0.2129,-0.1374,-0.1423,-0.1372,-0.1484,-0.1533,-0.162,-0.1638,-0.1733,-0.1964,-0.2111,-0.207,-0.2078,-0.1954,-0.1958,-0.1868,-0.1865,-0.1815,0,0]},{"header":{"parameterUnit":"m.s-1","parameterCategory":2,"la1":30.2992,"la2":30.254,"lo1":-89.0895,"lo2":-89.0443,"dy":0.0025,"dx":0.0025,"nx":19,"ny":19,"refTime":"2026-04-01T21:00:00:Z","depth":"0","parameterNumber":3,"parameterNumberName":"V-component_of_CURRENTS"},"data":[0,0,0,-0.0263,-0.0262,-0.0235,-0.0234,-0.0174,-0.0173,0,0,0,0,0,0,0,0,0,0,0,-0.027,-0.027,-0.0263,-0.0262,-0.0235,-0.0234,-0.0174,-0.0173,0,0,0,0,0,0,0,0,0,0,0,-0.027,-0.027,-0.027,-0.0262,-0.0235,-0.0234,-0.0174,-0.0199,0,0,0,0,0,0,0,0,0,0,-0.0228,-0.0239,-0.027,-0.027,-0.0262,-0.0235,-0.0234,-0.02,-0.0197,-0.0182,0,-0.0182,0,-0.0181,-0.017,-0.0169,0,0,0,-0.0253,-0.0242,-0.0239,-0.027,-0.0262,-0.0235,-0.0245,-0.0199,-0.0195,-0.0178,-0.0182,-0.018,-0.018,-0.0169,-0.0169,-0.0146,-0.0147,0,0,-0.0255,-0.0258,-0.0241,-0.0237,-0.026,-0.0246,-0.0244,-0.0197,-0.0193,-0.0181,-0.0178,-0.0179,-0.0169,-0.0168,-0.0146,-0.0146,0,0,0,-0.0265,-0.0259,-0.0257,-0.0239,-0.0239,-0.0245,-0.0243,-0.0195,-0.0195,-0.0178,-0.0178,-0.0168,-0.0168,-0.0146,-0.0146,-0.0169,0,0,0,-0.0266,-0.0266,-0.0258,-0.0259,-0.024,-0.0219,-0.0242,-0.0199,-0.0193,-0.0178,-0.0168,-0.0167,-0.0146,-0.0146,-0.0168,-0.0182,0,0,0,-0.027,-0.0266,-0.0266,-0.0259,-0.0252,-0.022,-0.0218,-0.0197,-0.0194,-0.0169,-0.0167,-0.0146,-0.0146,-0.0167,-0.018,-0.012,0,0,0,-0.027,-0.0284,-0.0266,-0.0284,-0.0253,-0.0258,-0.0218,-0.0215,-0.02,-0.0168,-0.0146,-0.0146,-0.0167,-0.0179,-0.012,-0.0089,-0.0086,0,0,-0.0293,-0.0287,-0.03,-0.0284,-0.0305,-0.026,-0.0261,-0.0225,-0.0198,-0.0157,-0.0157,-0.0168,-0.018,-0.012,-0.0114,-0.011,0,0,0,-0.0311,-0.0322,-0.0325,-0.0331,-0.0322,-0.0303,-0.0265,-0.0236,-0.0199,-0.0192,-0.0171,-0.0177,-0.0138,-0.0121,-0.0118,0.0059,-0.0148,-0.0148,-0.0148,-0.0322,-0.0336,-0.0365,-0.0375,-0.0372,-0.0329,-0.03,-0.0252,-0.0222,-0.0211,-0.0197,-0.0173,-0.0157,-0.0154,0.0026,-0.0197,-0.0197,-0.0197,-0.0197,-0.0366,-0.0385,-0.0402,-0.0439,-0.0415,-0.0406,-0.0337,-0.0298,-0.0214,-0.0216,-0.0176,-0.015,-0.0152,0.0039,-0.0199,-0.0199,-0.0198,-0.0198,-0.0198,-0.0366,-0.0384,-0.0416,-0.047,-0.0478,-0.0451,-0.0425,-0.0343,-0.0248,-0.0209,-0.0132,-0.0131,0.0044,-0.0167,-0.0166,-0.0166,-0.0166,-0.0166,-0.0166,-0.0352,-0.0392,-0.0446,-0.0499,-0.0533,-0.0538,-0.0459,-0.0393,-0.0238,-0.0152,-0.015,0.0073,-0.0162,-0.0155,-0.0163,-0.0163,-0.0164,-0.0164,-0.0164,-0.0376,-0.0385,-0.047,-0.0521,-0.0608,-0.065,-0.0563,-0.04,-0.0264,-0.0172,0.0149,-0.0097,-0.0072,-0.0075,-0.0065,-0.0048,-0.0048,-0.0048,-0.0048,-0.0376,-0.0393,-0.0511,-0.061,-0.0686,-0.0711,-0.0672,-0.0465,-0.004,0.0205,0.0297,0.0307,0.0294,0.0341,0.033,0.0348,0.047,0.0471,0.0471,-0.041,-0.0437,-0.0531,-0.0637,-0.0745,-0.0788,-0.0773,-0.0528,0.0158,0.0511,0.0542,0.052,0.055,0.0516,0.0598,0.0567,0.0599,0,0]}],[{"header":{"parameterUnit":"m.s-1","parameterCategory":2,"la1":30.2992,"la2":30.254,"lo1":-89.0895,"lo2":-89.0443,"dy":0.0025,"dx":0.0025,"nx":19,"ny":19,"refTime":"2026-04-01T21:00:00:Z","depth":"2","parameterNumber":2,"parameterNumberName":"U-component_of_CURRENTS"},"data":[0,0,0,-0.1549,-0.1549,-0.1534,-0.1534,-0.1466,-0.1465,0,0,0,0,0,0,0,0,0,0,0,-0.1553,-0.1553,-0.1549,-0.1549,-0.1534,-0.1534,-0.1466,-0.1465,0,0,0,0,0,0,0,0,0,0,0,-0.1553,-0.1553,-0.1553,-0.1549,-0.1534,-0.1534,-0.1466,-0.1489,0,0,0,0,0,0,0,0,0,0,-0.1509,-0.1521,-0.1553,-0.1553,-0.1549,-0.1534,-0.1534,-0.149,-0.1487,-0.1461,0,-0.1461,0,-0.1463,-0.146,-0.146,0,0,0,-0.1545,-0.1524,-0.1521,-0.1553,-0.1549,-0.1534,-0.1539,-0.1489,-0.1486,-0.1457,-0.146,-0.1458,-0.1461,-0.146,-0.1459,-0.1443,-0.1443,0,0,-0.1546,-0.1547,-0.1523,-0.1519,-0.1547,-0.154,-0.1539,-0.1488,-0.1483,-0.146,-0.1457,-0.146,-0.1459,-0.1459,-0.1442,-0.1443,0,0,0,-0.1551,-0.1548,-0.1546,-0.1521,-0.1522,-0.154,-0.1538,-0.1485,-0.1485,-0.1456,-0.146,-0.1459,-0.1458,-0.1442,-0.1442,-0.157,0,0,0,-0.1551,-0.1551,-0.1547,-0.1547,-0.1524,-0.151,-0.1537,-0.1489,-0.1483,-0.146,-0.1459,-0.1457,-0.1441,-0.1442,-0.1566,-0.1593,0,0,0,-0.1554,-0.1551,-0.1551,-0.1547,-0.1543,-0.1512,-0.1509,-0.1488,-0.1485,-0.146,-0.1457,-0.1441,-0.1442,-0.1562,-0.1587,-0.1646,0,0,0,-0.1554,-0.1566,-0.1551,-0.1564,-0.1543,-0.1542,-0.1509,-0.1506,-0.1491,-0.1458,-0.1441,-0.1442,-0.1561,-0.1583,-0.1642,-0.1553,-0.1565,0,0,-0.1573,-0.1568,-0.1577,-0.1564,-0.1569,-0.1544,-0.1561,-0.153,-0.1495,-0.1453,-0.1453,-0.1567,-0.1586,-0.1645,-0.1608,-0.1618,0,0,0,-0.1587,-0.1587,-0.1584,-0.1587,-0.158,-0.1599,-0.1557,-0.1564,-0.1573,-0.149,-0.1551,-0.1557,-0.1591,-0.1528,-0.1537,-0.1447,-0.1447,-0.1447,-0.1447,-0.1609,-0.1611,-0.1635,-0.1631,-0.1634,-0.1634,-0.1662,-0.1663,-0.1604,-0.1645,-0.1651,-0.1763,-0.1698,-0.1702,-0.1652,-0.1653,-0.1653,-0.1654,-0.1654,-0.1643,-0.1639,-0.1687,-0.1711,-0.1735,-0.1751,-0.1775,-0.1773,-0.1806,-0.1749,-0.1778,-0.1652,-0.1719,-0.1664,-0.1662,-0.1661,-0.166,-0.1659,-0.1658,-0.1627,-0.1622,-0.1683,-0.1736,-0.1804,-0.1816,-0.1874,-0.1882,-0.1912,-0.195,-0.1852,-0.1847,-0.1838,-0.1967,-0.1967,-0.1967,-0.1968,-0.1968,-0.1968,-0.1555,-0.1616,-0.1639,-0.1724,-0.1754,-0.1812,-0.1902,-0.1954,-0.1986,-0.1955,-0.1954,-0.1867,-0.1857,-0.1853,-0.1975,-0.1974,-0.1973,-0.1972,-0.1972,-0.1411,-0.148,-0.1501,-0.1539,-0.1631,-0.1642,-0.1781,-0.1893,-0.1982,-0.1995,-0.1957,-0.1955,-0.1896,-0.1886,-0.1881,-0.2003,-0.2003,-0.2003,-0.2003,-0.1297,-0.1338,-0.1358,-0.1394,-0.1463,-0.1544,-0.1561,-0.1675,-0.1814,-0.1819,-0.1826,-0.1734,-0.1737,-0.1663,-0.1658,-0.1645,-0.1706,-0.1705,-0.1704,-0.1172,-0.1222,-0.1192,-0.1301,-0.1378,-0.1432,-0.1384,-0.1395,-0.1532,-0.1691,-0.1757,-0.1986,-0.1867,-0.1866,-0.1759,-0.1749,-0.173,0,0]},{"header":{"parameterUnit":"m.s-1","parameterCategory":2,"la1":30.2992,"la2":30.254,"lo1":-89.0895,"lo2":-89.0443,"dy":0.0025,"dx":0.0025,"nx":19,"ny":19,"refTime":"2026-04-01T21:00:00:Z","depth":"2","parameterNumber":3,"parameterNumberName":"V-component_of_CURRENTS"},"data":[0,0,0,-0.0355,-0.0354,-0.0329,-0.0329,-0.0274,-0.0274,0,0,0,0,0,0,0,0,0,0,0,-0.0361,-0.0361,-0.0355,-0.0354,-0.0329,-0.0329,-0.0274,-0.0274,0,0,0,0,0,0,0,0,0,0,0,-0.0361,-0.0361,-0.0361,-0.0354,-0.0329,-0.0329,-0.0275,-0.0297,0,0,0,0,0,0,0,0,0,0,-0.0323,-0.0331,-0.0361,-0.0361,-0.0354,-0.0329,-0.0329,-0.0298,-0.0295,-0.0282,0,-0.0283,0,-0.0282,-0.0271,-0.027,0,0,0,-0.0345,-0.0333,-0.0333,-0.0361,-0.0354,-0.0329,-0.0338,-0.0297,-0.0294,-0.0279,-0.0283,-0.0281,-0.0281,-0.027,-0.027,-0.0246,-0.0246,0,0,-0.0347,-0.0347,-0.0336,-0.0332,-0.0353,-0.0339,-0.0337,-0.0295,-0.029,-0.0282,-0.028,-0.028,-0.027,-0.027,-0.0246,-0.0246,0,0,0,-0.0357,-0.0348,-0.0349,-0.0334,-0.0333,-0.0338,-0.0336,-0.0291,-0.0294,-0.0279,-0.0279,-0.027,-0.0269,-0.0246,-0.0246,-0.0255,0,0,0,-0.0357,-0.0355,-0.035,-0.0349,-0.0335,-0.0314,-0.0334,-0.0297,-0.0292,-0.028,-0.027,-0.0269,-0.0246,-0.0246,-0.0255,-0.0258,0,0,0,-0.0361,-0.0355,-0.0356,-0.0349,-0.0344,-0.0315,-0.0314,-0.0296,-0.0293,-0.027,-0.0268,-0.0246,-0.0246,-0.0254,-0.0257,-0.0204,0,0,0,-0.0357,-0.0367,-0.0356,-0.0371,-0.0344,-0.0351,-0.0315,-0.0312,-0.0298,-0.0269,-0.0246,-0.0246,-0.0254,-0.0257,-0.0205,-0.0206,-0.0204,0,0,-0.0371,-0.0368,-0.0381,-0.0371,-0.0391,-0.0353,-0.0353,-0.0319,-0.0294,-0.0256,-0.0256,-0.0255,-0.0257,-0.0205,-0.0222,-0.0218,0,0,0,-0.0388,-0.0394,-0.04,-0.0407,-0.0406,-0.0383,-0.0354,-0.0324,-0.0283,-0.0288,-0.0258,-0.0259,-0.0225,-0.0227,-0.0225,-0.0247,-0.0247,-0.0247,-0.0247,-0.0378,-0.0398,-0.0425,-0.0441,-0.0438,-0.0402,-0.0367,-0.0318,-0.0304,-0.0284,-0.0269,-0.024,-0.0245,-0.0243,-0.0271,-0.0271,-0.0271,-0.0271,-0.0271,-0.0409,-0.0434,-0.0449,-0.0485,-0.0464,-0.0455,-0.0379,-0.0343,-0.0262,-0.0271,-0.0237,-0.0241,-0.024,-0.0272,-0.0272,-0.0272,-0.0272,-0.0272,-0.0272,-0.0409,-0.0432,-0.0459,-0.051,-0.0511,-0.0485,-0.0448,-0.0367,-0.0278,-0.024,-0.0209,-0.0209,-0.0221,-0.0216,-0.0216,-0.0215,-0.0215,-0.0215,-0.0215,-0.0408,-0.0441,-0.0493,-0.0537,-0.0567,-0.0563,-0.0477,-0.041,-0.0282,-0.0214,-0.0213,-0.022,-0.0222,-0.0216,-0.0212,-0.0212,-0.0213,-0.0213,-0.0213,-0.0445,-0.0451,-0.0529,-0.0574,-0.0647,-0.0674,-0.0582,-0.0436,-0.0316,-0.0242,-0.0177,-0.0179,-0.0164,-0.0167,-0.016,-0.014,-0.014,-0.014,-0.014,-0.0458,-0.0472,-0.0579,-0.0666,-0.0729,-0.0733,-0.0692,-0.05,-0.0276,-0.015,-0.015,-0.0183,-0.0186,-0.0174,-0.0176,-0.017,-0.0153,-0.0153,-0.0153,-0.0499,-0.052,-0.0608,-0.0699,-0.0788,-0.0807,-0.0781,-0.0549,-0.0214,-0.0154,-0.0158,-0.014,-0.0189,-0.0193,-0.0176,-0.0179,-0.017,0,0]}],[{"header":{"parameterUnit":"m.s-1","parameterCategory":2,"la1":30.2992,"la2":30.254,"lo1":-89.0895,"lo2":-89.0443,"dy":0.0025,"dx":0.0025,"nx":19,"ny":19,"refTime":"2026-04-01T21:00:00:Z","depth":"4","parameterNumber":2,"parameterNumberName":"U-component_of_CURRENTS"},"data":[0,0,0,-0.0622,-0.0623,-0.0696,-0.0696,-0.0753,-0.0754,0,0,0,0,0,0,0,0,0,0,0,-0.0595,-0.0596,-0.0622,-0.0624,-0.0696,-0.0696,-0.0753,-0.0754,0,0,0,0,0,0,0,0,0,0,0,-0.0595,-0.0596,-0.0596,-0.0624,-0.0696,-0.0696,-0.0753,-0.0707,0,0,0,0,0,0,0,0,0,0,-0.0641,-0.0614,-0.0596,-0.0596,-0.0624,-0.0696,-0.0696,-0.0705,-0.071,-0.0711,0,-0.0725,0,-0.0742,-0.0757,-0.0757,0,0,0,-0.0622,-0.061,-0.0639,-0.0596,-0.0625,-0.0696,-0.0663,-0.0708,-0.0713,-0.0717,-0.0726,-0.0729,-0.0743,-0.0757,-0.0757,-0.0765,-0.0764,0,0,-0.0618,-0.0599,-0.0635,-0.0642,-0.0648,-0.066,-0.0665,-0.0711,-0.0712,-0.0727,-0.0731,-0.0744,-0.0757,-0.0758,-0.0765,-0.0764,0,0,0,-0.0608,-0.0596,-0.0624,-0.0639,-0.0656,-0.0663,-0.0668,-0.071,-0.0722,-0.0731,-0.0745,-0.0758,-0.0758,-0.0765,-0.0765,-0.0888,0,0,0,-0.0605,-0.0591,-0.0622,-0.0611,-0.0656,-0.0687,-0.0665,-0.0719,-0.0725,-0.0744,-0.0758,-0.0759,-0.0765,-0.0765,-0.0885,-0.0948,0,0,0,-0.0591,-0.0589,-0.0601,-0.061,-0.0643,-0.0687,-0.0702,-0.0721,-0.0733,-0.0757,-0.0759,-0.0766,-0.0765,-0.0883,-0.0943,-0.1005,0,0,0,-0.0565,-0.0581,-0.06,-0.0624,-0.0643,-0.068,-0.0701,-0.073,-0.0749,-0.0758,-0.0765,-0.0765,-0.0882,-0.094,-0.1001,-0.0841,0,0,0,-0.057,-0.0581,-0.0596,-0.0616,-0.0655,-0.067,-0.0713,-0.0749,-0.0736,-0.0748,-0.0749,-0.0886,-0.0942,-0.1004,-0.0801,0,0,0,0,-0.0588,-0.0603,-0.0616,-0.0647,-0.0673,-0.073,-0.074,-0.0763,-0.0807,-0.0746,-0.0837,-0.0868,-0.0904,-0.0796,-0.0761,-0.0762,-0.0762,-0.0762,-0.0762,-0.0562,-0.0597,-0.0625,-0.067,-0.0698,-0.0764,-0.0823,-0.0849,-0.0821,-0.085,-0.0933,-0.1014,-0.0898,-0.0884,-0.0884,-0.0885,-0.0885,-0.0886,-0.0886,-0.0572,-0.0588,-0.0643,-0.0687,-0.0752,-0.0797,-0.0921,-0.0956,-0.1039,-0.0982,-0.1012,-0.0887,-0.0897,-0.0895,-0.0893,-0.0892,-0.0891,-0.089,-0.089,-0.0542,-0.0556,-0.06,-0.0672,-0.0763,-0.0862,-0.1,-0.1137,-0.1159,-0.1214,-0.1076,-0.1094,-0.1126,-0.1227,-0.1227,-0.1228,-0.1229,-0.1229,-0.1229,-0.0486,-0.0534,-0.0573,-0.066,-0.0711,-0.0856,-0.1076,-0.1123,-0.122,-0.1194,-0.1251,-0.1129,-0.1118,-0.1143,-0.1238,-0.1236,-0.1235,-0.1234,-0.1234,-0.0457,-0.0471,-0.0524,-0.0572,-0.0676,-0.077,-0.0988,-0.1111,-0.1146,-0.1135,-0.1171,-0.1172,-0.1117,-0.1106,-0.1129,-0.1224,-0.1222,-0.1221,0,-0.0416,-0.0433,-0.0481,-0.0533,-0.0586,-0.0724,-0.0775,-0.0851,-0.0999,-0.1034,-0.1063,-0.1099,-0.1101,-0.1026,-0.1014,-0.1032,0,0,0,-0.0401,-0.0413,-0.0426,-0.0475,-0.054,-0.0657,-0.0786,-0.0829,-0.1024,-0.0982,-0.1179,-0.119,-0.1012,-0.1263,-0.118,-0.1167,-0.1203,0,0]},{"header":{"parameterUnit":"m.s-1","parameterCategory":2,"la1":30.2992,"la2":30.254,"lo1":-89.0895,"lo2":-89.0443,"dy":0.0025,"dx":0.0025,"nx":19,"ny":19,"refTime":"2026-04-01T21:00:00:Z","depth":"4","parameterNumber":3,"parameterNumberName":"V-component_of_CURRENTS"},"data":[0,0,0,0.0168,0.0169,0.0217,0.0218,0.0439,0.0441,0,0,0,0,0,0,0,0,0,0,0,0.016,0.016,0.0168,0.0169,0.0217,0.0218,0.0438,0.0441,0,0,0,0,0,0,0,0,0,0,0,0.016,0.016,0.016,0.0169,0.0217,0.0218,0.0438,0.0366,0,0,0,0,0,0,0,0,0,0,0.03,0.0264,0.016,0.016,0.0169,0.0217,0.0218,0.0361,0.037,0.0457,0,0.0456,0,0.0447,0.0458,0.0459,0,0,0,0.0186,0.0255,0.0265,0.016,0.0169,0.0217,0.02,0.0365,0.0376,0.047,0.0459,0.0466,0.0451,0.0459,0.0461,0.0642,0.0642,0,0,0.0183,0.0181,0.0256,0.0271,0.0176,0.0199,0.0201,0.037,0.0386,0.0459,0.047,0.0455,0.0461,0.0463,0.0642,0.0642,0,0,0,0.0164,0.0179,0.0181,0.0264,0.0256,0.0199,0.0203,0.0378,0.0377,0.0472,0.0457,0.0462,0.0466,0.0642,0.0642,0.067,0,0,0,0.0163,0.0166,0.018,0.0181,0.0251,0.0296,0.0208,0.0366,0.0383,0.0456,0.0463,0.0468,0.0642,0.0642,0.0669,0.0593,0,0,0,0.0159,0.0166,0.0167,0.018,0.0192,0.0292,0.0301,0.0368,0.0375,0.0459,0.0469,0.0642,0.0642,0.0668,0.0595,0.0508,0,0,0,0.0161,0.0159,0.0168,0.0175,0.0191,0.0231,0.0299,0.0354,0.042,0.0464,0.0642,0.0642,0.0667,0.0595,0.051,0.0367,0,0,0,0.0157,0.0159,0.0164,0.0171,0.0184,0.0226,0.0277,0.0389,0.0456,0.0601,0.0604,0.0669,0.0595,0.0508,0.0384,0,0,0,0,0.0161,0.0157,0.0169,0.0177,0.0212,0.0254,0.0336,0.0416,0.0554,0.0492,0.0666,0.0616,0.0561,0.0486,0.0643,0.0643,0.0643,0.0643,0.0643,0.0142,0.0151,0.0154,0.0169,0.02,0.0288,0.0362,0.0481,0.0559,0.0627,0.0642,0.0585,0.0514,0.0689,0.0689,0.0689,0.0689,0.0689,0.069,0.0115,0.0105,0.0128,0.0131,0.0184,0.0236,0.0412,0.0497,0.0585,0.0666,0.0614,0.0525,0.0692,0.0692,0.0691,0.0691,0.0691,0.0691,0.069,0.0083,0.0076,0.0083,0.0083,0.0122,0.0212,0.0263,0.0426,0.0549,0.0544,0.0389,0.0543,0.0532,0.0501,0.0501,0.05,0.05,0.0499,0.0499,0.0039,0.0044,0.0025,0.0033,0.0027,0.0066,0.0176,0.0202,0.0313,0.0317,0.0487,0.0518,0.0524,0.0517,0.0488,0.049,0.0491,0.0492,0.0493,-0.0013,-0.0006,-0.0041,-0.0057,-0.0088,-0.0081,-0.0001,-0.0009,-0.0039,-0.0046,0.0201,0.0218,0.0156,0.0169,0.0148,0.0008,0.0006,0.0004,0,-0.0049,-0.0047,-0.0101,-0.0149,-0.0206,-0.0163,-0.0248,-0.0235,-0.0127,-0.0108,-0.0014,0.0268,0.0281,0.0218,0.0226,0.0203,0,0,0,-0.0082,-0.0091,-0.0142,-0.0187,-0.0259,-0.0283,-0.0268,-0.0286,-0.012,-0.0218,-0.0049,-0.0035,0.0223,0.0458,0.0401,0.0409,0.0392,0,0]}]]